"Period start","avg(HW err(1)/warn(2) (#))","avg(Visibility (m))","avg(Weather code (#))","avg(Precip intensity (mm/h))","min(HW err(1)/warn(2) (#))","max(HW err(1)/warn(2) (#))","std(HW err(1)/warn(2) (#))","med(HW err(1)/warn(2) (#))","min(Visibility (m))","max(Visibility (m))","std(Visibility (m))","med(Visibility (m))","min(Weather code (#))","max(Weather code (#))","std(Weather code (#))","med(Weather code (#))","min(Precip intensity (mm/h))","max(Precip intensity (mm/h))","std(Precip intensity (mm/h))","med(Precip intensity (mm/h))"
2016-10-26 00:00:00,2,25759,36,0.05,2,2,0,2,12478,50000,13367,21578,0,71,36,36,0.00,0.30,0.09,0.00
2016-10-26 00:10:00,2,45080,68,0.00,2,2,0,2,32922,50000,5663,47060,0,77,23,77,0.00,0.00,0.00,0.00
2016-10-26 00:20:00,2,36625,14,0.01,2,2,0,2,10720,49654,14890,45102,0,71,28,0,0.00,0.05,0.02,0.00
2016-10-26 00:30:00,2,17364,75,0.03,2,2,0,2,14344,24293,3107,16110,71,77,3,77,0.00,0.05,0.02,0.05
2016-10-26 00:40:00,2,45969,15,0.00,2,2,0,2,30594,50000,6129,49630,0,77,31,0,0.00,0.00,0.00,0.00
2016-10-26 00:50:00,2,49887,0,0.00,2,2,0,2,48874,50000,338,50000,0,0,0,0,0.00,0.00,0.00,0.00
2016-10-26 01:00:00,2,48645,0,0.00,2,2,0,2,37122,50000,3846,50000,0,0,0,0,0.00,0.00,0.00,0.00
2016-10-26 01:10:00,2,24780,60,0.02,2,2,0,2,15168,43858,8468,21714,0,78,30,77,0.00,0.05,0.02,0.00
2016-10-26 01:20:00,2,46140,8,0.00,2,2,0,2,32977,50000,6154,49720,0,78,23,0,0.00,0.00,0.00,0.00
2016-10-26 01:30:00,2,49009,0,0.00,2,2,0,2,45062,50000,1625,50000,0,0,0,0,0.00,0.00,0.00,0.00
2016-10-26 01:40:00,2,49648,0,0.00,2,2,0,2,46819,50000,947,50000,0,0,0,0,0.00,0.00,0.00,0.00
2016-10-26 01:50:00,2,41858,14,0.01,2,2,0,2,20001,50000,11017,47688,0,71,28,0,0.00,0.10,0.03,0.00
2016-10-26 02:00:00,2,38650,74,0.01,2,2,0,2,23604,49422,8353,40224,71,78,3,74,0.00,0.05,0.02,0.00
2016-10-26 02:10:00,2,17254,74,0.16,2,2,0,2,9359,25881,5312,16010,71,78,3,71,0.00,0.50,0.16,0.12
2016-10-26 02:20:00,2,20756,71,0.14,2,2,0,2,9158,39578,11679,15812,71,71,0,71,0.00,0.35,0.11,0.12
2016-10-26 02:30:00,2,8642,71,0.38,2,2,0,2,4453,14534,3427,7708,71,71,0,71,0.00,1.20,0.35,0.38
2016-10-26 02:40:00,2,20576,71,0.07,2,2,0,2,13361,34494,5947,18634,71,71,0,71,0.00,0.30,0.09,0.05
2016-10-26 02:50:00,2,28629,74,0.03,2,2,0,2,11262,41694,9840,27026,71,78,3,74,0.00,0.20,0.06,0.00
2016-10-26 03:00:00,2,40162,36,0.01,2,2,0,2,19881,50000,12157,48009,0,71,36,36,0.00,0.05,0.02,0.00
2016-10-26 03:10:00,2,31651,43,0.02,2,2,0,2,16381,43881,8626,28722,0,71,35,71,0.00,0.05,0.02,0.00
2016-10-26 03:20:00,2,23436,72,0.04,2,2,0,2,15675,38521,6849,22838,71,77,2,71,0.00,0.20,0.07,0.00
2016-10-26 03:30:00,2,48835,46,0.00,2,2,0,2,43263,50000,2080,50000,0,77,38,77,0.00,0.00,0.00,0.00
2016-10-26 03:40:00,2,43069,0,0.00,2,2,0,2,33231,50000,7059,44488,0,0,0,0,0.00,0.00,0.00,0.00
2016-10-26 03:50:00,2,27478,52,0.04,2,2,0,2,13229,40834,9614,27524,0,77,34,71,0.00,0.15,0.06,0.00
2016-10-26 04:00:00,2,24292,72,0.05,2,2,0,2,16915,33132,5299,25496,71,77,2,71,0.00,0.15,0.06,0.03
2016-10-26 04:10:00,2,38872,77,0.02,2,2,0,2,28859,50000,7842,38032,77,77,0,77,0.00,0.10,0.03,0.00
2016-10-26 04:20:00,2,37489,75,0.02,2,2,0,2,24660,50000,8864,41018,71,77,3,77,0.00,0.05,0.02,0.00
2016-10-26 04:30:00,2,39479,77,0.00,2,2,0,2,26253,45782,5817,41980,77,77,0,77,0.00,0.00,0.00,0.00
2016-10-26 04:40:00,2,43007,0,0.00,2,2,0,2,24892,50000,8426,46217,0,0,0,0,0.00,0.00,0.00,0.00
2016-10-26 04:50:00,2,35689,53,0.01,2,2,0,2,26335,45010,5960,36442,0,77,35,74,0.00,0.05,0.02,0.00
2016-10-26 05:00:00,2,15940,74,0.11,2,2,0,2,9858,21245,3376,16242,71,77,3,74,0.05,0.30,0.08,0.08
2016-10-26 05:10:00,2,21333,71,0.07,2,2,0,2,13019,29574,5293,20024,71,71,0,71,0.00,0.15,0.05,0.05
2016-10-26 05:20:00,2,29593,72,0.03,2,2,0,2,16542,48367,10189,28368,71,77,2,71,0.00,0.15,0.04,0.03
2016-10-26 05:30:00,2,35897,77,0.02,2,2,0,2,21022,43572,6088,36982,77,77,0,77,0.00,0.10,0.03,0.00
2016-10-26 05:40:00,2,29767,59,0.02,2,2,0,2,15100,40806,7505,32056,41,71,15,71,0.00,0.05,0.02,0.00
2016-10-26 05:50:00,2,45374,54,0.01,2,2,0,2,34587,50000,5699,48125,0,77,35,77,0.00,0.05,0.02,0.00
2016-10-26 06:00:00,2,41042,14,0.01,2,2,0,2,15923,50000,13387,50000,0,71,28,0,0.00,0.05,0.02,0.00
2016-10-26 06:10:00,2,15117,71,0.25,2,2,0,2,11124,24417,4097,13316,71,71,0,71,0.00,1.15,0.32,0.12
2016-10-26 06:20:00,2,17892,71,0.13,2,2,0,2,11638,30770,5466,15884,71,71,0,71,0.00,0.30,0.10,0.10
2016-10-26 06:30:00,2,13274,71,0.15,2,2,0,2,6584,16983,3438,14252,71,71,0,71,0.00,0.40,0.10,0.12
2016-10-26 06:40:00,2,12127,71,0.43,2,2,0,2,4638,24454,6484,10026,71,71,0,71,0.00,1.25,0.38,0.38
2016-10-26 06:50:00,2,8178,71,0.42,2,2,0,2,4300,13973,2704,7499,71,71,0,71,0.10,0.65,0.16,0.42
2016-10-26 07:00:00,2,8128,71,0.68,2,2,0,2,4222,15138,3652,7248,71,71,0,71,0.20,1.35,0.40,0.60
2016-10-26 07:10:00,2,14398,71,0.23,2,2,0,2,6727,24824,4752,14090,71,71,0,71,0.00,1.05,0.29,0.15
2016-10-26 07:20:00,2,11172,71,0.39,2,2,0,2,7708,19727,3268,10186,71,71,0,71,0.05,0.80,0.22,0.35
2016-10-26 07:30:00,2,8909,71,0.49,2,2,0,2,4138,16576,3862,8240,71,71,0,71,0.00,1.90,0.57,0.20
2016-10-26 07:40:00,2,9136,71,0.47,2,2,0,2,6662,12584,1893,8832,71,71,0,71,0.05,1.10,0.29,0.45
2016-10-26 07:50:00,2,12099,71,0.38,2,2,0,2,5617,19410,4114,11459,71,71,0,71,0.00,0.95,0.30,0.35
2016-10-26 08:00:00,2,12621,71,0.51,2,2,0,2,4806,26085,5538,12114,71,71,0,71,0.00,1.85,0.48,0.38
2016-10-26 08:10:00,2,8624,71,1.02,2,2,0,2,2690,16272,4457,8899,71,71,0,71,0.15,2.30,0.72,0.82
2016-10-26 08:20:00,2,13905,71,0.84,2,2,0,2,2675,34920,11050,9099,71,71,0,71,0.00,2.80,0.88,0.68
2016-10-26 08:30:00,2,46802,8,0.00,2,2,0,2,41459,50000,3079,47559,0,71,22,0,0.00,0.00,0.00,0.00
2016-10-26 08:40:00,2,42960,51,0.02,2,2,0,2,30440,50000,6974,43626,0,77,33,71,0.00,0.10,0.03,0.00
2016-10-26 08:50:00,2,38839,73,0.06,2,2,0,2,24306,50000,9694,39973,71,77,3,71,0.00,0.20,0.08,0.00
2016-10-26 09:00:00,2,20457,71,0.14,2,2,0,2,13272,31296,5411,21182,71,71,0,71,0.00,0.35,0.11,0.10
2016-10-26 09:10:00,2,33147,71,0.07,2,2,0,2,14758,49846,10321,35079,71,71,0,71,0.00,0.30,0.11,0.00
2016-10-26 09:20:00,2,23432,71,0.11,2,2,0,2,9448,39521,10656,19514,71,71,0,71,0.00,0.30,0.11,0.05
2016-10-26 09:30:00,2,24238,71,0.21,2,2,0,2,6933,40256,10644,23209,71,71,0,71,0.00,1.30,0.37,0.08
2016-10-26 09:40:00,2,24905,72,0.11,2,2,0,2,12501,39592,9797,24002,71,77,2,71,0.00,0.25,0.11,0.05
2016-10-26 09:50:00,2,37655,72,0.04,2,2,0,2,31723,46403,4727,36554,71,77,2,71,0.00,0.20,0.06,0.00
2016-10-26 10:00:00,2,46296,77,0.01,2,2,0,2,39348,50000,3799,47262,77,77,0,77,0.00,0.05,0.02,0.00
2016-10-26 10:10:00,2,42412,0,0.00,2,2,0,2,30149,50000,6678,42887,0,0,0,0,0.00,0.00,0.00,0.00
2016-10-26 10:20:00,2,36456,53,0.01,2,2,0,2,28313,46871,5671,35818,0,77,35,74,0.00,0.05,0.02,0.00
2016-10-26 10:30:00,2,48771,54,0.00,2,2,0,2,41941,50000,2418,50000,0,77,35,77,0.00,0.00,0.00,0.00
2016-10-26 10:40:00,2,49681,0,0.00,2,2,0,2,48587,50000,519,50000,0,0,0,0,0.00,0.00,0.00,0.00
2016-10-26 10:50:00,2,49798,0,0.00,2,2,0,2,48241,50000,525,50000,0,0,0,0,0.00,0.00,0.00,0.00
2016-10-26 11:00:00,2,49094,0,0.00,2,2,0,2,42307,50000,2299,50000,0,0,0,0,0.00,0.00,0.00,0.00
2016-10-26 11:10:00,2,49563,0,0.00,2,2,0,2,46616,50000,1014,50000,0,0,0,0,0.00,0.00,0.00,0.00
2016-10-26 11:20:00,2,49102,0,0.00,2,2,0,2,45637,50000,1473,50000,0,0,0,0,0.00,0.00,0.00,0.00
2016-10-26 11:30:00,2,45064,0,0.00,2,2,0,2,23217,50000,9846,50000,0,0,0,0,0.00,0.00,0.00,0.00
2016-10-26 11:40:00,2,48696,0,0.00,2,2,0,2,40844,50000,2691,50000,0,0,0,0,0.00,0.00,0.00,0.00
2016-10-26 11:50:00,2,35112,64,0.04,2,2,0,2,20922,49573,7647,33958,0,71,21,71,0.00,0.15,0.07,0.00
2016-10-26 12:00:00,2,18522,71,0.12,2,2,0,2,8154,37036,8700,15383,71,71,0,71,0.00,0.40,0.12,0.08
2016-10-26 12:10:00,2,8209,71,0.65,2,2,0,2,3256,16060,3751,7949,71,71,0,71,0.05,1.75,0.50,0.53
2016-10-26 12:20:00,2,12920,71,0.30,2,2,0,2,4310,23718,6307,13246,71,71,0,71,0.00,0.95,0.36,0.12
2016-10-26 12:30:00,2,15306,71,0.22,2,2,0,2,5400,28507,6074,13923,71,71,0,71,0.00,1.05,0.31,0.10
2016-10-26 12:40:00,2,16588,71,0.15,2,2,0,2,12687,27843,4336,16196,71,71,0,71,0.00,0.30,0.12,0.12
2016-10-26 12:50:00,2,12007,71,0.17,2,2,0,2,7522,20739,4429,9720,71,71,0,71,0.00,0.40,0.12,0.17
2016-10-26 13:00:00,2,26731,72,0.07,2,2,0,2,10963,35657,6985,28197,71,77,2,71,0.00,0.40,0.12,0.00
2016-10-26 13:10:00,2,28146,73,0.03,2,2,0,2,12538,44934,10896,27489,71,77,3,71,0.00,0.20,0.06,0.00
2016-10-26 13:20:00,2,8846,72,0.17,2,2,0,2,5114,17452,3534,7565,71,78,3,71,0.00,0.40,0.13,0.15
2016-10-26 13:30:00,2,11712,71,0.15,2,2,0,2,5500,20549,4763,11156,71,71,0,71,0.00,0.50,0.17,0.05
2016-10-26 13:40:00,2,24461,73,0.01,2,2,0,2,15978,32126,5440,24813,71,77,3,71,0.00,0.05,0.02,0.00
2016-10-26 13:50:00,2,44244,7,0.00,2,2,0,2,36674,50000,4717,43484,0,71,21,0,0.00,0.00,0.00,0.00
2016-10-26 14:00:00,2,34659,0,0.00,2,2,0,2,25820,43172,5714,33377,0,0,0,0,0.00,0.00,0.00,0.00
2016-10-26 14:10:00,2,17119,64,0.14,2,2,0,2,3590,36338,12292,11238,0,71,21,71,0.00,0.90,0.29,0.00
2016-10-26 14:20:00,2,8592,71,0.18,2,2,0,2,3081,15936,3991,7646,71,71,0,71,0.00,0.95,0.28,0.05
2016-10-26 14:30:00,2,47262,7,0.00,2,2,0,2,33881,50000,5054,50000,0,71,21,0,0.00,0.00,0.00,0.00
2016-10-26 14:40:00,2,50000,0,0.00,2,2,0,2,50000,50000,0,50000,0,0,0,0,0.00,0.00,0.00,0.00
2016-10-26 14:50:00,2,48431,0,0.00,2,2,0,2,39869,50000,3174,50000,0,0,0,0,0.00,0.00,0.00,0.00
2016-10-26 15:00:00,2,14225,57,0.03,2,2,0,2,4684,34786,9197,11181,0,71,28,71,0.00,0.15,0.05,0.00
2016-10-26 15:10:00,2,5079,73,0.45,2,2,0,2,2625,8357,1794,5049,71,77,3,71,0.05,1.65,0.55,0.12
2016-10-26 15:20:00,2,6904,72,0.12,2,2,0,2,5509,8539,761,6824,71,77,2,71,0.05,0.15,0.04,0.15
2016-10-26 15:30:00,2,9173,77,0.04,2,2,0,2,6609,11169,1681,9546,77,77,0,77,0.00,0.10,0.04,0.05
2016-10-26 15:40:00,2,17682,77,0.01,2,2,0,2,12775,23531,3100,17146,77,77,0,77,0.00,0.05,0.02,0.00
2016-10-26 15:50:00,2,38420,23,0.00,2,2,0,2,16163,48156,9357,39344,0,77,35,0,0.00,0.00,0.00,0.00
2016-10-26 16:00:00,2,48074,0,0.00,2,2,0,2,42633,50000,2633,50000,0,0,0,0,0.00,0.00,0.00,0.00
2016-10-26 16:10:00,2,43614,0,0.00,2,2,0,2,34110,50000,5670,44555,0,0,0,0,0.00,0.00,0.00,0.00
2016-10-26 16:20:00,2,23548,51,0.01,2,2,0,2,6433,48874,12728,23410,0,71,28,71,0.00,0.05,0.02,0.00
2016-10-26 16:30:00,2,44161,0,0.00,2,2,0,2,28123,50000,8060,48930,0,0,0,0,0.00,0.00,0.00,0.00
2016-10-26 16:40:00,2,46370,0,0.00,2,2,0,2,36820,50000,4669,48880,0,0,0,0,0.00,0.00,0.00,0.00
2016-10-26 16:50:00,2,32245,21,0.03,2,2,0,2,5569,50000,18370,37388,0,71,33,0,0.00,0.15,0.05,0.00
2016-10-26 17:00:00,2,6485,71,0.67,2,2,0,2,2764,18511,4450,5032,71,71,0,71,0.00,1.90,0.58,0.53
2016-10-26 17:10:00,2,11797,71,0.84,2,2,0,2,1532,37956,11332,6884,71,71,0,71,0.00,3.40,1.08,0.28
2016-10-26 17:20:00,2,11270,72,0.11,2,2,0,2,7012,17908,3489,10552,71,77,2,71,0.00,0.70,0.20,0.05
2016-10-26 17:30:00,2,30849,28,0.03,2,2,0,2,7990,50000,15908,36008,0,71,35,0,0.00,0.15,0.06,0.00
2016-10-26 17:40:00,2,50000,0,0.00,2,2,0,2,50000,50000,0,50000,0,0,0,0,0.00,0.00,0.00,0.00
2016-10-26 17:50:00,2,43157,0,0.00,2,2,0,2,23038,50000,10019,48073,0,0,0,0,0.00,0.00,0.00,0.00
2016-10-26 18:00:00,2,27503,61,0.01,2,2,0,2,10107,44103,9893,30219,0,78,31,77,0.00,0.05,0.02,0.00
2016-10-26 18:10:00,2,23714,78,0.01,2,2,0,2,11660,33994,7302,24200,78,78,0,78,0.00,0.05,0.02,0.00
2016-10-26 18:20:00,2,9405,78,0.09,2,2,0,2,4380,14945,3469,9846,77,78,0,78,0.00,0.30,0.09,0.05
2016-10-26 18:30:00,2,5881,75,0.27,2,2,0,2,2492,9650,2505,6141,71,77,3,77,0.05,0.65,0.26,0.12
2016-10-26 18:40:00,2,2566,71,1.18,2,2,0,2,1462,3309,621,2836,71,71,0,71,0.35,3.30,0.94,0.85
2016-10-26 18:50:00,2,3210,71,0.80,2,2,0,2,1476,4869,1046,3154,71,71,0,71,0.15,1.70,0.51,0.68
2016-10-26 19:00:00,2,2774,71,0.21,2,2,0,2,1853,3745,586,2711,71,71,0,71,0.05,0.85,0.24,0.10
2016-10-26 19:10:00,2,7681,77,0.14,2,2,0,2,3062,14623,3531,7244,77,77,0,77,0.00,0.40,0.13,0.15
2016-10-26 19:20:00,2,4526,74,0.67,2,2,0,2,1843,8226,1915,3988,71,77,3,74,0.05,2.00,0.71,0.33
2016-10-26 19:30:00,2,7795,63,0.04,2,2,0,2,5000,10294,1645,7810,41,77,15,71,0.00,0.15,0.05,0.00
2016-10-26 19:40:00,2,9534,42,0.01,2,2,0,2,5921,15451,2712,9406,10,77,32,40,0.00,0.05,0.02,0.00
2016-10-26 19:50:00,2,12990,23,0.00,2,2,0,2,8965,15788,2312,13368,10,77,27,10,0.00,0.00,0.00,0.00
2016-10-26 20:00:00,2,20149,0,0.00,2,2,0,2,9136,36753,8146,18068,0,0,0,0,0.00,0.00,0.00,0.00
2016-10-26 20:10:00,2,21178,0,0.00,2,2,0,2,12581,31257,5878,21630,0,0,0,0,0.00,0.00,0.00,0.00
2016-10-26 20:20:00,2,34458,0,0.00,2,2,0,2,26014,43123,5492,35204,0,0,0,0,0.00,0.00,0.00,0.00
2016-10-26 20:30:00,2,39252,0,0.00,2,2,0,2,23219,50000,9434,39410,0,0,0,0,0.00,0.00,0.00,0.00
2016-10-26 20:40:00,2,35368,0,0.00,2,2,0,2,16610,50000,9110,35746,0,0,0,0,0.00,0.00,0.00,0.00
2016-10-26 20:50:00,2,23609,0,0.00,2,2,0,2,17724,31050,3757,23586,0,0,0,0,0.00,0.00,0.00,0.00
2016-10-26 21:00:00,2,12512,22,0.00,2,2,0,2,8407,17225,2795,12610,0,77,33,0,0.00,0.00,0.00,0.00
2016-10-26 21:10:00,2,10954,77,0.01,2,2,0,2,6432,13824,2122,11356,77,77,0,77,0.00,0.05,0.02,0.00
2016-10-26 21:20:00,2,6660,77,0.03,2,2,0,2,2932,9271,1861,6620,77,77,0,77,0.00,0.05,0.02,0.05
2016-10-26 21:30:00,2,9193,77,0.03,2,2,0,2,6712,16143,2713,8972,77,77,0,77,0.00,0.05,0.02,0.05
2016-10-26 21:40:00,2,8668,74,0.07,2,2,0,2,5032,11656,1887,8551,71,77,3,74,0.00,0.25,0.07,0.05
2016-10-26 21:50:00,2,10840,77,0.01,2,2,0,2,7317,13493,1832,10783,77,77,0,77,0.00,0.05,0.02,0.00
2016-10-26 22:00:00,2,29342,54,0.00,2,2,0,2,16622,47044,10058,28878,0,77,35,77,0.00,0.00,0.00,0.00
2016-10-26 22:10:00,2,19082,45,0.00,2,2,0,2,10967,29391,6374,16818,0,78,37,71,0.00,0.00,0.00,0.00
2016-10-26 22:20:00,2,15619,77,0.00,2,2,0,2,7711,21520,4253,16069,77,78,0,77,0.00,0.00,0.00,0.00
2016-10-26 22:30:00,2,20417,78,0.00,2,2,0,2,13146,26185,4184,21636,78,78,0,78,0.00,0.00,0.00,0.00
2016-10-26 22:40:00,2,35336,16,0.00,2,2,0,2,20780,43217,6504,38456,0,78,31,0,0.00,0.00,0.00,0.00
2016-10-26 22:50:00,2,16661,77,0.01,2,2,0,2,10814,24756,4984,14634,71,78,3,78,0.00,0.05,0.02,0.00
2016-10-26 23:00:00,2,4326,74,0.49,2,2,0,2,1322,9448,2207,4014,71,78,3,71,0.05,2.10,0.57,0.33
2016-10-26 23:10:00,2,1531,71,2.98,2,2,0,2,507,3280,762,1505,71,71,0,71,0.15,9.05,2.49,2.08
2016-10-26 23:20:00,2,9154,43,0.02,2,2,0,2,3362,16876,4312,8744,0,71,35,71,0.00,0.10,0.03,0.00
2016-10-26 23:30:00,2,11182,0,0.00,2,2,0,2,4751,18538,4364,10173,0,0,0,0,0.00,0.00,0.00,0.00
2016-10-26 23:40:00,2,2644,71,0.35,2,2,0,2,1739,4333,759,2570,71,71,0,71,0.00,1.25,0.39,0.20
2016-10-26 23:50:00,2,4951,75,0.06,2,2,0,2,2368,8060,1953,4260,71,77,3,77,0.00,0.15,0.06,0.05
